User: anonymous   Login
Location: Unspecified
(0.0000°N, 0.0000°E)
Time: 02:38:15
(UTC+00:00)
Language:

WGS F3 (USA 211) - Orbit

View from above orbital plane
View from above orbital plane
View from above satellite
View from above satellite

Ground track
Ground track

The orbit data is extracted from the following two-line orbital elements,

1 36108U 09068A   24206.42820302 -.00000269  00000-0  00000-0 0  9994
2 36108   0.0189  52.9172 0000381 113.7355 247.3286  1.00270693 39654
Epoch (UTC): 24 July 2024 10:16:36
Eccentricity: 0.0000381
inclination: 0.0189°
perigee height: 35785 km
apogee height: 35788 km
right ascension of ascending node: 52.9172°
argument of perigee: 113.7355°
revolutions per day: 1.00270693
mean anomaly at epoch: 247.3286°
orbit number at epoch: 3965

The dashed part of the orbit path shows where the satellite is in the earth's shadow,  

DLR